Wind_Speed
14 17 15 13 14 15 15 16 19 12 13 26 27 28 27 25 25 25 27 29 30 29 34 34 30 25 23 23 22 21 22 21 21 19 15 14 14 28
15 17 13 14 14 14 17 22 24 24 14 27 28 29 28 29 29 27 27 28 30 30 33 32 31 25 23 21 22 22 20 20 20 20 17 13 9 6
15 13 13 13 14 16 23 25 24 25 21 27 30 29 29 29 29 29 28 28 29 31 32 26 23 19 20 22 22 22 20 20 18 19 19 17 10 3
10 12 12 15 19 22 24 25 25 27 27 26 28 28 28 27 28 28 29 28 27 28 29 16 17 21 24 26 23 23 20 18 19 17 18 18 15 11
11 11 14 19 21 22 23 24 25 27 27 26 25 24 26 25 26 26 26 25 25 28 28 30 32 30 20 18 19 21 20 18 19 16 14 15 16 15
11 15 18 18 18 17 21 22 22 24 24 24 24 25 24 24 24 25 23 21 21 23 23 23 21 18 22 23 21 20 19 17 17 16 12 14 13 15
15 16 15 15 17 15 14 20 20 21 21 21 22 22 21 22 22 24 23 23 22 22 23 23 21 18 18 23 22 16 13 14 15 16 13 11 8 8
14 15 15 16 12 17 16 11 17 21 24 25 23 22 26 24 24 25 22 21 12 19 19 20 19 19 18 15 4 8 10 9 10 14 18 13 10 10
13 14 15 15 16 15 16 20 20 22 23 24 24 24 24 21 25 25 23 23 22 22 19 20 18 17 15 16 7 12 13 13 11 10 11 18 16 11
12 14 14 14 13 13 18 20 21 21 20 20 20 23 25 26 25 26 26 27 24 22 22 18 19 19 16 17 18 17 17 16 17 12 10 9 14 15
13 13 12 14 13 18 16 19 20 19 17 17 20 23 25 27 25 24 24 19 16 19 18 15 20 18 17 17 17 18 18 17 19 18 14 10 8 11
12 12 11 8 12 14 14 16 19 19 21 23 21 20 20 19 16 16 20 19 16 13 12 11 13 10 10 17 19 17 15 17 18 19 19 16 12 8
12 12 10 14 18 16 14 13 15 20 19 19 19 18 17 16 14 16 17 18 19 18 16 10 13 12 13 10 5 9 12 12 13 14 20 20 18 14
13 12 13 17 17 15 13 13 19 14 15 16 17 16 15 16 17 17 18 19 20 21 20 14 10 11 12 13 10 5 7 8 10 10 12 15 20 20
12 12 16 15 14 13 8 14 12 12 13 14 15 15 16 16 18 17 18 19 20 18 17 15 12 12 12 12 10 6 4 6 5 8 9 11 14 16
12 9 15 14 12 13 12 10 10 10 12 13 14 14 15 15 15 17 19 20 21 9 8 12 14 13 13 13 13 12 8 4 6 5 4 7 13 15
11 12 12 10 11 11 10 10 10 10 11 11 13 13 14 15 15 16 16 18 16 15 13 9 7 9 13 11 9 9 8 6 8 9 5 5 7 12
11 13 13 9 10 10 10 10 10 10 10 11 11 12 13 14 16 14 13 14 15 14 13 13 14 14 9 7 8 8 6 5 6 7 3 3 5 8
12 14 14 11 10 11 10 9 9 9 9 10 11 11 12 13 14 14 12 12 14 14 14 13 13 12 7 2 4 4 7 9 4 1 3 5 4 2
17 16 14 12 11 11 10 9 8 9 9 9 10 10 10 11 12 12 13 13 13 13 13 12 10 11 10 7 7 5 5 3 4 5 3 1 1 2
16 17 16 14 12 11 10 8 8 9 9 8 9 9 9 10 11 11 12 11 14 11 12 12 13 14 9 8 7 8 1 2 1 2 4 4 3 6
18 17 16 14 13 11 10 9 9 9 9 8 8 7 8 9 10 10 10 11 11 11 12 12 11 10 9 11 10 3 8 4 3 1 1 1 2 3
20 18 17 16 14 12 12 11 10 9 8 8 7 7 6 8 8 9 9 10 10 11 12 13 11 10 9 6 6 7 5 5 5 4 2 2 2 3
Wind_Direction
287 293 278 280 285 288 293 297 289 294 295 301 299 299 302 304 300 303 299 295 294 291 290 287 284 283 291 297 303 306 310 323 316 334 340 302 285 243
299 288 286 293 293 292 293 290 287 295 295 297 298 304 309 304 302 307 302 298 294 291 291 277 269 269 283 287 294 298 300 309 319 313 325 342 267 329
285 289 291 290 291 295 289 293 296 293 295 298 298 301 307 308 304 301 296 292 288 288 288 299 252 261 281 287 287 291 295 292 309 317 304 312 320 344
295 293 294 297 293 293 300 299 301 300 299 298 302 308 304 301 300 298 293 291 290 286 289 270 260 275 281 282 282 283 286 284 289 312 319 298 311 265
302 303 298 298 304 303 305 306 305 301 299 299 305 302 299 299 296 295 295 295 288 287 281 274 269 267 267 276 276 278 276 281 278 290 303 294 288 269
301 299 306 304 304 313 307 303 304 304 305 301 299 301 300 298 297 295 295 294 293 292 295 287 284 271 259 276 273 269 270 269 273 272 300 290 288 279
305 304 304 308 306 302 301 306 308 306 304 300 298 298 297 300 300 301 302 293 292 291 288 288 278 280 272 267 254 260 248 268 264 257 267 275 253 290
304 307 307 306 304 306 302 297 295 295 294 295 293 295 299 300 308 304 300 306 298 291 294 288 293 287 280 281 215 225 231 265 270 254 246 256 251 247
306 309 310 310 314 316 312 309 301 297 291 285 287 287 302 310 308 308 307 305 296 299 296 288 293 285 280 283 282 279 266 270 273 272 266 248 250 244
307 306 306 314 321 332 319 308 305 303 302 302 300 301 301 301 297 294 296 295 289 286 282 282 281 274 269 268 274 274 274 274 258 253 260 264 247 240
305 303 308 305 308 318 319 312 310 308 305 308 305 298 295 293 288 285 286 291 289 288 283 273 278 266 264 257 251 253 258 266 256 249 245 243 248 234
304 307 309 306 309 322 316 311 308 312 317 312 306 308 306 304 297 279 276 287 295 298 292 267 278 263 263 249 237 242 246 253 255 248 249 244 237 236
302 305 303 319 314 317 311 305 305 310 310 306 311 313 313 318 318 309 306 305 301 297 296 297 280 283 282 289 235 225 228 235 243 244 241 242 237 232
290 298 303 306 313 311 310 297 316 314 311 316 313 318 324 325 322 314 301 292 282 275 284 288 287 289 289 287 291 227 225 227 217 224 226 242 240 233
284 287 304 307 309 315 307 309 318 318 322 319 323 321 322 322 321 323 326 322 314 281 261 267 266 271 281 288 292 307 275 220 212 210 223 222 217 227
282 285 303 301 304 308 300 313 312 314 316 316 323 321 323 327 329 333 330 332 329 21 245 251 252 251 263 274 283 290 277 257 184 189 213 231 223 219
283 296 293 299 308 310 311 311 312 316 319 324 323 328 331 331 330 333 333 335 340 353 5 4 330 257 243 263 294 288 290 252 199 181 187 217 223 222
276 280 283 284 291 300 303 306 309 313 322 321 325 329 334 334 332 331 339 339 337 342 344 345 343 349 235 246 256 299 335 104 80 154 194 216 216 218
254 266 272 277 281 284 290 296 303 312 314 318 322 327 332 333 331 336 341 344 339 335 332 332 339 351 336 98 111 44 11 53 49 195 209 223 261 87
247 260 263 265 268 275 281 287 296 302 307 316 317 323 326 329 333 339 340 346 338 328 328 332 356 2 348 347 337 350 1 44 26 3 48 63 322 15
246 250 251 259 262 266 270 273 277 285 292 298 307 315 321 325 328 336 334 339 326 339 330 332 333 327 307 300 276 242 92 95 184 29 7 321 266 182
247 251 256 257 257 256 259 256 261 262 268 281 295 301 311 318 320 328 334 335 337 335 326 328 324 313 291 259 291 263 153 138 127 113 85 8 24 352
239 240 246 246 245 243 246 252 254 260 264 269 279 289 301 304 317 318 326 329 333 335 339 327 334 332 328 337 334 339 116 168 171 163 130 88 61 51
Height
828 827 827 825 824 823 823 822 819 811 805 804 802 800 797 795 793 790 788 786 784 781 781 779 778 776 774 771 768 765 762 759 755 752 747 745 741 744
824 824 823 822 822 822 821 818 815 808 801 802 797 795 793 791 788 786 784 781 778 776 774 771 770 769 768 766 764 761 758 756 753 750 748 744 742 739
822 821 821 821 820 819 816 812 808 805 799 795 794 791 789 787 785 783 780 777 773 770 768 765 764 764 762 761 759 757 754 752 750 746 743 742 739 739
820 820 819 818 817 814 811 808 805 802 798 791 789 788 788 785 782 779 775 771 768 764 762 760 760 759 757 755 754 752 750 748 746 744 740 737 738 735
820 818 817 815 813 811 809 806 803 800 797 792 786 787 784 782 777 774 770 767 763 760 757 754 751 751 751 749 747 746 745 744 743 741 741 742 738 734
818 816 814 813 812 811 810 807 803 798 794 791 787 784 781 778 774 769 765 762 759 755 752 749 747 746 746 743 741 741 741 740 739 738 737 737 739 739
815 813 812 810 810 809 808 805 802 798 795 791 787 783 779 774 771 766 762 759 756 753 748 745 743 741 740 739 736 736 736 736 736 735 736 737 739 740
813 811 810 808 807 806 803 802 801 798 793 790 785 780 775 772 768 765 760 756 751 750 746 742 740 737 735 733 733 733 733 734 734 733 735 737 738 740
811 810 808 806 804 801 800 798 796 793 790 786 781 776 773 770 767 763 758 755 751 747 745 740 738 736 734 732 731 732 732 732 733 733 733 735 737 739
808 807 805 804 802 800 798 795 791 787 783 780 777 774 771 768 765 761 756 751 747 743 740 736 734 732 731 729 728 728 729 730 731 733 733 733 734 737
806 805 803 802 799 797 796 792 788 783 780 777 774 770 766 762 760 757 752 747 741 738 736 735 730 729 727 725 725 725 725 726 726 729 732 733 733 734
804 802 799 798 796 795 793 790 786 781 777 773 769 764 761 757 754 751 748 744 738 735 732 731 728 727 723 719 719 720 720 721 722 724 726 729 733 734
802 800 798 794 793 791 790 787 784 780 776 771 766 762 758 754 751 748 745 743 739 735 732 730 727 726 722 719 718 718 718 718 719 720 723 725 729 732
799 797 795 792 790 787 785 784 781 777 774 770 765 761 757 754 750 746 742 739 736 732 729 729 727 725 723 720 717 716 716 717 718 719 721 723 726 730
796 794 792 789 787 784 783 781 778 776 773 769 764 761 757 753 749 744 740 735 729 725 725 725 725 724 723 721 719 716 716 716 717 719 720 722 724 726
791 790 789 786 783 781 779 778 777 774 772 768 764 761 756 752 748 744 740 734 727 721 721 722 722 722 721 720 719 716 716 716 717 718 719 720 722 724
788 787 785 782 781 779 777 776 774 772 770 768 764 759 756 752 748 745 740 736 731 727 724 722 720 719 719 719 719 717 715 715 716 717 719 720 721 722
785 783 780 779 778 776 775 773 772 771 769 767 763 760 756 753 749 745 742 738 734 730 727 724 722 719 717 718 718 717 712 714 716 718 719 719 720 721
781 778 776 775 774 773 772 771 770 769 768 765 763 760 757 754 750 745 742 740 736 733 730 726 723 721 717 705 717 718 717 717 718 718 719 719 720 720
774 773 771 771 770 769 768 768 767 767 766 764 762 760 757 754 750 747 744 741 738 735 731 727 726 725 725 724 722 720 719 719 720 720 719 720 720 721
767 767 766 766 765 765 765 765 765 765 764 763 761 759 756 754 750 748 745 743 739 735 733 730 728 727 725 724 722 719 719 719 720 721 721 721 720 721
760 761 761 761 760 761 761 761 762 761 760 760 759 757 756 753 750 748 746 744 740 738 735 731 729 726 724 723 720 718 718 721 721 722 722 723 723 721
752 753 754 755 755 756 757 757 757 757 757 757 756 755 754 753 750 748 746 743 741 739 736 732 729 726 723 722 721 719 719 720 721 722 723 723 724 724